Location: Earls Croome
(52.0667°N, 2.2000°W)
Time: 06:27:23
(UTC+00:00)

COSMOS 2455 - Pass Details

Date: 17 November 2019
Orbit: 902 x 908 km, 67.1° (Epoch: 10 December)

Event Time Altitude Azimuth Distance (km) Brightness Sun altitude
Exits shadow 06:23:43 13° 295° (WNW) 2,394 4.4 -10.4°
Maximum altitude 06:27:22 22° 253° (WSW) 1,884 4.1 -9.8°
Drops below altitude 10° 06:31:47 10° 205° (SSW) 2,584 5.2 -9.2°
Sets 06:34:49 0° 191° (S) 3,519 6.0 -8.7°
